SCP
1 0 -1 1 1 1 1 0 0 0 0 0 0 0 0 0 0 0 0 0 0 0 0 0 0 0 0 0 0 0 0 0 0 0 0 0 0 -0 0 0 0 0 0
1 2 1 1 1 1 0 0 0 0 0 0 0 0 0 0 0 0 0 0 0 0 0 0 0 0 0 0 0 0 0 0 0 0 0 0 0 0 0 -0 -0 -0 0
1 0 0 0 0 0 0 0 0 0 0 0 0 0 0 0 0 0 0 0 0 0 0 0 0 0 0 0 0 0 0 0 0 0 0 0 0 0 0 0 -0 -0 -0
2 1 -1 -0 0 0 0 0 0 0 0 0 0 0 0 0 0 0 0 0 0 0 0 0 0 0 0 0 0 0 0 0 0 0 0 0 0 0 0 0 -0 0 -0
1 0 -2 0 0 0 0 0 0 0 0 0 0 0 0 0 0 0 0 0 0 0 0 0 0 0 0 0 0 0 0 0 0 0 0 0 0 0 0 0 0 0 0
0 1 1 0 0 0 0 0 0 0 0 0 0 0 0 0 0 0 0 0 0 0 0 0 0 0 0 0 0 0 0 0 0 0 0 0 0 0 0 0 0 0 0
1 3 2 0 0 0 0 0 0 0 0 0 0 0 0 0 0 0 0 0 0 0 0 0 0 0 0 0 0 0 0 0 0 0 0 0 0 0 0 0 0 0 0
0 0 1 -0 0 0 0 0 0 0 0 0 0 0 0 0 0 0 0 0 0 0 0 0 0 0 0 0 0 0 0 0 0 0 0 0 0 0 0 0 0 0 0
0 0 0 0 0 0 0 0 0 0 0 0 0 0 0 0 0 0 0 0 0 0 0 0 0 0 0 0 0 0 0 0 0 0 0 0 0 0 0 0 0 0 0
0 0 0 0 0 0 0 0 0 0 0 0 0 0 0 0 0 0 0 0 0 0 0 0 0 0 0 0 0 0 0 0 0 0 0 0 0 0 0 0 0 0 0
-0 0 0 0 -0 0 0 0 0 0 0 0 0 0 0 0 0 0 0 0 0 0 0 0 0 0 0 0 0 0 0 0 0 0 0 0 0 0 0 0 0 0 0
-0 0 0 0 0 0 0 -0 0 0 0 0 0 0 0 0 0 0 0 0 0 0 0 0 0 0 0 0 0 0 0 0 0 0 0 0 0 0 0 0 0 0 0
-0 -0 -0 0 0 -0 0 -0 0 0 0 0 0 0 0 0 0 0 0 0 0 0 0 0 0 0 0 0 0 0 0 0 0 0 0 0 0 0 0 0 0 0 0
-0 0 0 0 -0 0 0 0 0 0 0 0 0 0 0 0 0 0 0 0 0 0 0 0 0 0 0 0 0 0 0 0 0 0 0 0 0 0 0 0 0 0 0
0 0 0 -0 0 0 0 0 0 0 0 0 0 0 0 0 0 0 0 0 0 0 0 0 0 0 0 0 0 0 0 0 0 0 0 0 0 0 0 0 0 0 0
0 0 0 1 0 0 0 0 0 0 0 0 0 0 0 0 0 0 0 0 0 0 0 0 0 0 0 0 0 0 0 0 0 0 0 0 0 0 0 0 0 0 0
0 0 1 1 0 1 0 0 0 0 0 0 0 0 0 0 0 0 0 0 0 0 0 0 0 0 0 0 0 0 0 0 0 0 0 0 0 0 0 0 0 0 0
-0 0 0 2 1 1 1 1 0 0 0 0 0 0 0 0 0 0 0 0 0 0 0 0 0 0 0 0 0 0 0 0 0 0 0 0 0 0 0 0 0 0 0
0 -0 -0 0 1 2 1 0 0 0 0 0 0 0 0 0 0 0 0 0 0 0 0 0 0 0 0 0 0 0 0 0 0 0 0 0 0 0 0 0 0 0 0
0 0 0 0 1 2 1 0 0 0 0 0 0 0 0 0 0 0 0 0 0 0 0 0 0 0 0 0 0 0 0 0 0 0 0 0 0 0 0 0 0 0 0
0 0 0 1 1 3 1 0 0 0 0 0 0 0 0 0 0 0 0 0 0 0 0 0 0 0 0 0 0 0 0 0 0 0 0 0 0 0 0 0 0 0 0
0 0 0 0 1 1 1 1 0 0 0 0 0 0 0 0 0 0 0 0 0 0 0 0 -0 0 0 0 0 0 0 0 0 0 0 0 0 0 0 0 0 0 0
0 0 0 0 0 1 1 1 0 0 0 0 0 0 0 0 0 0 0 0 0 0 0 0 0 0 0 0 0 0 0 0 0 0 0 0 0 0 0 0 0 0 0
0 0 0 0 0 0 1 0 0 0 0 0 0 0 0 0 0 0 0 0 0 0 0 0 0 0 0 0 0 0 0 0 0 0 0 0 0 0 0 0 0 0 0
0 0 0 -0 0 0 0 0 0 0 0 0 0 0 0 0 0 0 0 0 0 0 0 0 0 0 0 0 0 0 0 0 0 0 0 0 0 0 0 0 0 -0 0
0 0 0 0 0 0 0 0 0 0 0 0 0 0 0 0 0 0 0 0 0 0 0 0 0 0 0 0 0 0 0 0 0 0 0 0 0 0 0 0 0 0 0
Wind_Speed_500mb
52 63 57 56 53 54 50 40 36 30 21 17 20 15 11 2 5 8 5 7 6 9 11 9 12 18 28 20 14 8 12 18 21 15 13 12 9 14 17 21 16 17 18
54 54 54 55 60 59 49 42 37 33 25 27 24 21 17 16 13 10 5 6 8 7 8 14 15 21 22 26 20 25 16 26 29 30 17 9 4 16 12 17 24 18 22
61 60 62 51 44 46 48 44 39 36 32 38 38 35 23 13 6 8 7 6 7 7 11 9 17 15 7 24 26 21 26 26 19 28 26 13 18 27 10 10 27 21 20
74 75 69 67 56 53 49 45 40 40 44 38 30 25 14 11 17 19 17 3 8 8 9 11 11 20 18 14 18 16 23 11 28 24 23 19 20 21 22 18 29 25 18
68 80 81 73 70 61 52 50 46 43 45 39 27 29 25 23 20 23 11 12 2 12 6 9 12 12 10 19 20 23 14 18 22 24 25 23 24 22 26 33 33 15 18
58 87 78 77 70 59 57 53 53 48 43 46 36 30 27 23 27 19 4 6 5 6 11 3 7 11 8 8 17 15 26 21 14 21 24 24 26 30 29 34 38 36 27
18 37 71 76 71 66 57 56 55 52 44 47 41 40 36 33 30 17 18 14 6 9 7 4 9 4 5 12 9 16 14 18 14 11 18 23 22 21 23 27 32 35 32
62 66 71 75 73 67 59 53 53 52 48 45 41 37 33 30 20 23 20 19 10 19 16 5 3 2 3 4 11 3 7 9 14 23 19 24 19 20 18 24 28 35 39
32 86 100 87 75 68 64 58 51 51 49 48 43 38 32 24 17 23 26 23 22 15 16 8 7 3 2 6 7 8 4 7 13 10 25 19 19 16 23 20 19 32 31
65 9 25 48 64 65 62 55 53 54 53 48 45 40 38 32 33 28 24 19 25 15 18 12 7 5 3 6 7 9 9 7 9 9 17 21 21 11 28 21 25 32 31
17 33 29 41 51 66 62 59 56 53 51 48 45 41 40 35 30 23 29 28 25 23 13 12 9 5 4 7 11 13 2 4 9 15 15 20 25 16 30 27 28 39 43
9 32 49 59 61 68 60 59 59 52 51 47 47 43 38 35 28 23 23 21 18 18 16 13 10 8 5 10 7 4 4 6 11 15 18 22 24 29 34 33 29 36 45
21 7 42 44 74 65 61 59 57 53 52 52 49 43 39 36 31 29 23 22 19 15 15 13 11 8 8 8 9 11 12 14 17 21 26 32 37 38 43 36 34 38 38
12 20 31 61 81 73 64 62 58 54 54 53 47 45 41 38 32 29 27 23 21 18 16 15 11 11 14 11 11 12 16 20 23 28 35 40 37 41 31 35 35 35 44
51 48 28 109 78 68 62 61 58 55 58 55 51 47 42 36 30 30 26 24 22 19 20 14 14 14 16 17 23 14 20 27 31 34 37 41 40 38 34 27 31 38 40
45 58 60 37 35 68 73 73 63 59 57 53 53 49 43 37 34 31 29 24 23 21 19 19 17 16 12 18 18 27 32 31 37 42 44 44 41 25 21 21 41 41 38
50 58 55 33 87 77 77 83 66 59 58 53 48 45 41 36 35 33 30 27 23 22 21 19 18 18 21 25 26 25 28 35 42 43 43 42 32 28 34 35 39 49 39
48 61 54 44 40 69 69 70 62 66 64 55 51 49 43 39 35 33 30 26 22 23 20 20 20 20 22 24 24 27 33 41 44 45 46 42 28 32 40 40 45 51 40
45 52 65 53 23 70 77 73 69 70 67 61 54 49 46 42 38 35 33 30 23 21 20 20 19 21 17 18 26 33 40 45 36 39 33 22 25 29 34 46 53 40 25
43 45 57 47 35 48 69 64 70 80 77 64 61 55 44 44 41 33 35 31 24 20 20 19 16 16 17 24 28 30 36 24 28 35 31 26 25 32 51 41 38 37 35
45 45 45 42 43 26 36 48 75 79 70 58 60 51 49 43 39 33 34 26 20 19 19 20 20 19 25 25 33 31 23 27 30 25 20 19 34 42 38 37 31 33 32
40 38 42 36 33 32 37 56 65 70 67 62 55 52 45 43 40 35 28 22 22 23 25 22 16 17 20 22 17 14 18 24 27 12 16 30 42 33 34 29 37 38 31
34 34 34 41 31 30 39 53 66 70 66 65 59 52 48 43 40 33 29 27 27 24 17 21 15 9 12 19 9 14 22 28 24 24 28 34 33 23 31 30 34 34 29
37 35 32 31 32 28 37 56 66 64 69 68 58 53 49 42 40 27 30 27 18 19 20 19 7 3 7 11 2 10 21 26 30 33 33 23 17 26 26 30 32 32 35
38 32 31 29 31 30 35 50 56 60 73 66 63 57 49 46 34 36 29 29 31 23 15 8 7 8 17 15 26 38 37 22 16 5 16 14 22 12 23 39 40 40 36
42 35 29 29 30 34 38 47 57 66 67 70 61 59 55 43 43 39 39 22 17 16 16 13 15 11 16 27 35 29 11 17 12 15 23 30 9 22 33 37 36 35 35
Wind_Direction_500mb
166 163 187 195 203 208 214 196 204 208 198 170 148 152 155 43 353 324 18 1 56 16 118 12 90 36 6 15 40 50 58 357 10 6 322 272 20 63 36 12 13 52 67
162 175 193 199 208 221 207 200 207 202 180 148 166 173 159 145 199 286 355 60 28 101 12 95 62 79 12 15 46 47 51 40 6 12 352 9 237 11 340 31 27 34 10
181 190 196 195 206 207 194 198 204 189 169 182 190 192 194 196 205 35 90 16 80 41 47 78 96 55 46 37 24 61 41 36 19 27 20 8 12 345 359 46 12 25 52
189 188 184 192 196 193 203 199 196 185 174 200 189 188 132 110 163 165 226 307 127 76 66 68 71 62 14 55 34 81 58 61 40 40 32 37 23 17 347 2 23 4 57
196 179 182 186 191 190 197 196 197 186 190 181 179 168 153 192 186 217 200 204 107 117 91 55 43 55 12 21 35 14 39 74 63 51 36 33 38 25 14 352 2 1 345
212 183 178 181 180 183 186 194 196 188 190 179 183 165 178 182 185 218 122 63 23 78 130 84 347 46 37 35 7 38 16 62 83 79 53 35 28 17 10 1 357 350 339
107 163 170 179 177 181 186 189 197 185 191 183 181 176 190 178 201 201 145 180 204 221 255 124 165 70 50 3 27 37 9 24 65 75 76 55 22 16 12 3 356 344 341
177 223 202 182 175 180 182 191 188 185 188 183 183 188 187 189 190 146 203 180 199 211 247 251 117 330 69 329 64 355 30 39 25 40 33 23 25 8 1 353 345 341 336
205 186 191 175 178 185 186 189 186 187 186 186 185 187 178 175 182 180 193 178 189 243 249 172 208 270 193 214 197 321 42 52 46 341 13 16 15 7 1 344 340 350 334
75 88 181 161 176 187 185 191 189 190 187 187 188 186 172 173 195 217 176 197 192 178 175 183 219 245 241 204 190 274 42 45 32 6 348 2 8 349 343 331 333 326 313
59 148 185 213 194 187 188 190 189 190 184 187 183 185 179 183 203 197 170 201 211 193 194 190 226 237 277 209 227 191 325 344 326 342 344 332 341 330 326 327 315 316 324
96 165 170 200 189 192 192 188 184 187 190 186 184 187 185 188 191 186 188 195 195 186 186 205 209 226 228 224 197 274 255 290 303 305 307 312 307 305 299 308 319 320 320
125 87 252 227 188 190 191 187 185 186 190 188 188 187 187 189 190 189 185 184 174 178 189 209 211 213 237 238 232 240 261 275 283 293 298 300 301 298 299 306 303 312 315
336 293 217 242 197 188 187 188 182 188 190 189 188 190 191 192 192 186 188 185 186 201 199 206 221 222 236 242 253 263 281 294 299 296 298 304 303 312 314 311 313 306 314
341 0 286 238 187 179 188 186 183 188 190 188 190 193 194 192 189 187 193 193 196 202 218 220 222 233 238 246 247 252 262 282 293 301 299 300 301 304 307 311 301 319 327
340 350 359 140 224 185 186 182 183 187 189 192 195 197 192 189 189 190 199 195 204 207 215 220 226 239 252 247 246 267 283 292 303 309 311 310 309 305 321 309 313 323 314
341 339 341 219 203 188 187 182 175 181 188 191 191 192 193 191 191 193 198 202 210 214 217 222 235 240 243 265 279 283 290 301 309 315 316 315 304 296 298 297 307 317 308
342 334 333 328 215 185 187 183 178 180 190 188 190 197 191 192 194 196 200 207 213 215 225 232 242 249 243 254 278 296 301 308 315 314 309 311 298 291 305 306 314 319 318
342 328 326 312 259 188 181 186 177 186 191 188 190 192 191 188 195 197 204 210 214 226 229 240 244 252 248 263 288 296 304 310 317 322 295 303 277 294 308 318 326 325 311
340 331 327 313 321 198 188 180 186 192 196 197 190 194 193 192 195 197 207 212 222 223 234 240 252 244 248 264 270 292 305 311 309 324 311 291 281 314 329 338 334 329 316
342 336 329 326 309 246 187 183 194 195 197 200 196 193 192 186 197 199 211 221 225 222 244 223 243 257 259 272 309 289 316 319 324 318 305 329 335 340 348 340 348 348 336
336 338 334 316 303 266 217 204 202 202 200 194 197 189 194 186 194 205 211 220 208 231 216 226 216 254 265 273 302 325 330 337 342 3 297 319 323 329 333 329 342 332 326
332 332 329 320 292 269 238 222 212 206 199 187 190 188 190 183 196 200 205 202 218 208 226 241 251 251 313 308 302 337 333 331 323 324 292 311 301 317 320 333 341 347 340
318 318 318 315 294 273 237 212 210 203 191 186 188 185 183 187 194 191 201 193 209 199 234 232 301 2 312 185 199 311 314 307 300 294 300 303 307 308 336 346 334 321 323
304 303 301 304 287 268 246 217 208 209 189 183 183 181 179 188 177 183 191 211 201 182 160 192 161 120 200 270 304 318 327 344 353 337 342 299 315 347 328 324 330 323 335
298 288 293 295 287 261 241 217 207 193 183 181 180 177 178 183 185 195 183 169 178 198 228 254 278 275 313 327 328 330 43 48 16 358 353 352 309 329 341 343 328 325 333
Wind_Speed_850mb
52 63 57 56 53 54 50 40 36 30 21 17 20 15 11 2 5 8 5 7 6 9 11 9 12 18 28 20 14 8 12 18 21 15 13 12 9 14 17 21 16 17 18
54 54 54 55 60 59 49 42 37 33 25 27 24 21 17 16 13 10 5 6 8 7 8 14 15 21 22 26 20 25 16 26 29 30 17 9 4 16 12 17 24 18 22
61 60 62 51 44 46 48 44 39 36 32 38 38 35 23 13 6 8 7 6 7 7 11 9 17 15 7 24 26 21 26 26 19 28 26 13 18 27 10 10 27 21 20
74 75 69 67 56 53 49 45 40 40 44 38 30 25 14 11 17 19 17 3 8 8 9 11 11 20 18 14 18 16 23 11 28 24 23 19 20 21 22 18 29 25 18
68 80 81 73 70 61 52 50 46 43 45 39 27 29 25 23 20 23 11 12 2 12 6 9 12 12 10 19 20 23 14 18 22 24 25 23 24 22 26 33 33 15 18
58 87 78 77 70 59 57 53 53 48 43 46 36 30 27 23 27 19 4 6 5 6 11 3 7 11 8 8 17 15 26 21 14 21 24 24 26 30 29 34 38 36 27
18 37 71 76 71 66 57 56 55 52 44 47 41 40 36 33 30 17 18 14 6 9 7 4 9 4 5 12 9 16 14 18 14 11 18 23 22 21 23 27 32 35 32
62 66 71 75 73 67 59 53 53 52 48 45 41 37 33 30 20 23 20 19 10 19 16 5 3 2 3 4 11 3 7 9 14 23 19 24 19 20 18 24 28 35 39
32 86 100 87 75 68 64 58 51 51 49 48 43 38 32 24 17 23 26 23 22 15 16 8 7 3 2 6 7 8 4 7 13 10 25 19 19 16 23 20 19 32 31
65 9 25 48 64 65 62 55 53 54 53 48 45 40 38 32 33 28 24 19 25 15 18 12 7 5 3 6 7 9 9 7 9 9 17 21 21 11 28 21 25 32 31
17 33 29 41 51 66 62 59 56 53 51 48 45 41 40 35 30 23 29 28 25 23 13 12 9 5 4 7 11 13 2 4 9 15 15 20 25 16 30 27 28 39 43
9 32 49 59 61 68 60 59 59 52 51 47 47 43 38 35 28 23 23 21 18 18 16 13 10 8 5 10 7 4 4 6 11 15 18 22 24 29 34 33 29 36 45
21 7 42 44 74 65 61 59 57 53 52 52 49 43 39 36 31 29 23 22 19 15 15 13 11 8 8 8 9 11 12 14 17 21 26 32 37 38 43 36 34 38 38
12 20 31 61 81 73 64 62 58 54 54 53 47 45 41 38 32 29 27 23 21 18 16 15 11 11 14 11 11 12 16 20 23 28 35 40 37 41 31 35 35 35 44
51 48 28 109 78 68 62 61 58 55 58 55 51 47 42 36 30 30 26 24 22 19 20 14 14 14 16 17 23 14 20 27 31 34 37 41 40 38 34 27 31 38 40
45 58 60 37 35 68 73 73 63 59 57 53 53 49 43 37 34 31 29 24 23 21 19 19 17 16 12 18 18 27 32 31 37 42 44 44 41 25 21 21 41 41 38
50 58 55 33 87 77 77 83 66 59 58 53 48 45 41 36 35 33 30 27 23 22 21 19 18 18 21 25 26 25 28 35 42 43 43 42 32 28 34 35 39 49 39
48 61 54 44 40 69 69 70 62 66 64 55 51 49 43 39 35 33 30 26 22 23 20 20 20 20 22 24 24 27 33 41 44 45 46 42 28 32 40 40 45 51 40
45 52 65 53 23 70 77 73 69 70 67 61 54 49 46 42 38 35 33 30 23 21 20 20 19 21 17 18 26 33 40 45 36 39 33 22 25 29 34 46 53 40 25
43 45 57 47 35 48 69 64 70 80 77 64 61 55 44 44 41 33 35 31 24 20 20 19 16 16 17 24 28 30 36 24 28 35 31 26 25 32 51 41 38 37 35
45 45 45 42 43 26 36 48 75 79 70 58 60 51 49 43 39 33 34 26 20 19 19 20 20 19 25 25 33 31 23 27 30 25 20 19 34 42 38 37 31 33 32
40 38 42 36 33 32 37 56 65 70 67 62 55 52 45 43 40 35 28 22 22 23 25 22 16 17 20 22 17 14 18 24 27 12 16 30 42 33 34 29 37 38 31
34 34 34 41 31 30 39 53 66 70 66 65 59 52 48 43 40 33 29 27 27 24 17 21 15 9 12 19 9 14 22 28 24 24 28 34 33 23 31 30 34 34 29
37 35 32 31 32 28 37 56 66 64 69 68 58 53 49 42 40 27 30 27 18 19 20 19 7 3 7 11 2 10 21 26 30 33 33 23 17 26 26 30 32 32 35
38 32 31 29 31 30 35 50 56 60 73 66 63 57 49 46 34 36 29 29 31 23 15 8 7 8 17 15 26 38 37 22 16 5 16 14 22 12 23 39 40 40 36
42 35 29 29 30 34 38 47 57 66 67 70 61 59 55 43 43 39 39 22 17 16 16 13 15 11 16 27 35 29 11 17 12 15 23 30 9 22 33 37 36 35 35
Wind_Direction_850mb
166 163 187 195 203 208 214 196 204 208 198 170 148 152 155 43 353 324 18 1 56 16 118 12 90 36 6 15 40 50 58 357 10 6 322 272 20 63 36 12 13 52 67
162 175 193 199 208 221 207 200 207 202 180 148 166 173 159 145 199 286 355 60 28 101 12 95 62 79 12 15 46 47 51 40 6 12 352 9 237 11 340 31 27 34 10
181 190 196 195 206 207 194 198 204 189 169 182 190 192 194 196 205 35 90 16 80 41 47 78 96 55 46 37 24 61 41 36 19 27 20 8 12 345 359 46 12 25 52
189 188 184 192 196 193 203 199 196 185 174 200 189 188 132 110 163 165 226 307 127 76 66 68 71 62 14 55 34 81 58 61 40 40 32 37 23 17 347 2 23 4 57
196 179 182 186 191 190 197 196 197 186 190 181 179 168 153 192 186 217 200 204 107 117 91 55 43 55 12 21 35 14 39 74 63 51 36 33 38 25 14 352 2 1 345
212 183 178 181 180 183 186 194 196 188 190 179 183 165 178 182 185 218 122 63 23 78 130 84 347 46 37 35 7 38 16 62 83 79 53 35 28 17 10 1 357 350 339
107 163 170 179 177 181 186 189 197 185 191 183 181 176 190 178 201 201 145 180 204 221 255 124 165 70 50 3 27 37 9 24 65 75 76 55 22 16 12 3 356 344 341
177 223 202 182 175 180 182 191 188 185 188 183 183 188 187 189 190 146 203 180 199 211 247 251 117 330 69 329 64 355 30 39 25 40 33 23 25 8 1 353 345 341 336
205 186 191 175 178 185 186 189 186 187 186 186 185 187 178 175 182 180 193 178 189 243 249 172 208 270 193 214 197 321 42 52 46 341 13 16 15 7 1 344 340 350 334
75 88 181 161 176 187 185 191 189 190 187 187 188 186 172 173 195 217 176 197 192 178 175 183 219 245 241 204 190 274 42 45 32 6 348 2 8 349 343 331 333 326 313
59 148 185 213 194 187 188 190 189 190 184 187 183 185 179 183 203 197 170 201 211 193 194 190 226 237 277 209 227 191 325 344 326 342 344 332 341 330 326 327 315 316 324
96 165 170 200 189 192 192 188 184 187 190 186 184 187 185 188 191 186 188 195 195 186 186 205 209 226 228 224 197 274 255 290 303 305 307 312 307 305 299 308 319 320 320
125 87 252 227 188 190 191 187 185 186 190 188 188 187 187 189 190 189 185 184 174 178 189 209 211 213 237 238 232 240 261 275 283 293 298 300 301 298 299 306 303 312 315
336 293 217 242 197 188 187 188 182 188 190 189 188 190 191 192 192 186 188 185 186 201 199 206 221 222 236 242 253 263 281 294 299 296 298 304 303 312 314 311 313 306 314
341 0 286 238 187 179 188 186 183 188 190 188 190 193 194 192 189 187 193 193 196 202 218 220 222 233 238 246 247 252 262 282 293 301 299 300 301 304 307 311 301 319 327
340 350 359 140 224 185 186 182 183 187 189 192 195 197 192 189 189 190 199 195 204 207 215 220 226 239 252 247 246 267 283 292 303 309 311 310 309 305 321 309 313 323 314
341 339 341 219 203 188 187 182 175 181 188 191 191 192 193 191 191 193 198 202 210 214 217 222 235 240 243 265 279 283 290 301 309 315 316 315 304 296 298 297 307 317 308
342 334 333 328 215 185 187 183 178 180 190 188 190 197 191 192 194 196 200 207 213 215 225 232 242 249 243 254 278 296 301 308 315 314 309 311 298 291 305 306 314 319 318
342 328 326 312 259 188 181 186 177 186 191 188 190 192 191 188 195 197 204 210 214 226 229 240 244 252 248 263 288 296 304 310 317 322 295 303 277 294 308 318 326 325 311
340 331 327 313 321 198 188 180 186 192 196 197 190 194 193 192 195 197 207 212 222 223 234 240 252 244 248 264 270 292 305 311 309 324 311 291 281 314 329 338 334 329 316
342 336 329 326 309 246 187 183 194 195 197 200 196 193 192 186 197 199 211 221 225 222 244 223 243 257 259 272 309 289 316 319 324 318 305 329 335 340 348 340 348 348 336
336 338 334 316 303 266 217 204 202 202 200 194 197 189 194 186 194 205 211 220 208 231 216 226 216 254 265 273 302 325 330 337 342 3 297 319 323 329 333 329 342 332 326
332 332 329 320 292 269 238 222 212 206 199 187 190 188 190 183 196 200 205 202 218 208 226 241 251 251 313 308 302 337 333 331 323 324 292 311 301 317 320 333 341 347 340
318 318 318 315 294 273 237 212 210 203 191 186 188 185 183 187 194 191 201 193 209 199 234 232 301 2 312 185 199 311 314 307 300 294 300 303 307 308 336 346 334 321 323
304 303 301 304 287 268 246 217 208 209 189 183 183 181 179 188 177 183 191 211 201 182 160 192 161 120 200 270 304 318 327 344 353 337 342 299 315 347 328 324 330 323 335
298 288 293 295 287 261 241 217 207 193 183 181 180 177 178 183 185 195 183 169 178 198 228 254 278 275 313 327 328 330 43 48 16 358 353 352 309 329 341 343 328 325 333